| time (UTC) | temp F | wind direction | speed knots | gust knots | rain 1hr in | rain 24hr in | rain mn in | humidity % | barometer mb |
| 20260505153003 | 53 | 342 | 1.7 | 5.2 | 0.00 | 0.00 | 0.00 | 59 | 1001.4 |
| 20260505152003 | 54 | 342 | 1.7 | 3.5 | 0.00 | 0.00 | 0.00 | 60 | 1001.5 |
| 20260505151003 | 54 | 343 | 1.7 | 4.3 | 0.00 | 0.00 | 0.00 | 60 | 1001.5 |
| 20260505125003 | 52 | 340 | 0.9 | 2.6 | 0.00 | 0.01 | 0.00 | 69 | 1000.6 |
| 20260505124003 | 53 | 340 | 0.9 | 2.6 | 0.00 | 0.01 | 0.00 | 67 | 1000.6 |
| 20260505123003 | 55 | 340 | 0.9 | 2.6 | 0.00 | 0.01 | 0.00 | 65 | 1000.5 |
| 20260505122003 | 57 | 339 | 0.9 | 3.5 | 0.00 | 0.01 | 0.00 | 60 | 1000.4 |
| 20260505121003 | 59 | 339 | 0.9 | 2.6 | 0.00 | 0.01 | 0.00 | 55 | 1000.2 |
| 20260505120004 | 62 | 341 | 1.7 | 9.6 | 0.00 | 0.01 | 0.00 | 53 | 1000.1 |
| 20260505115003 | 63 | 349 | 0.9 | 5.2 | 0.00 | 0.01 | 0.00 | 50 | 999.7 |
| 20260505114003 | 62 | 113 | 0.9 | 5.2 | 0.00 | 0.01 | 0.00 | 50 | 999.8 |
| 20260505113003 | 62 | 66 | 0.9 | 3.5 | 0.00 | 0.01 | 0.00 | 50 | 999.8 |
| 20260505112003 | 62 | 160 | 1.7 | 7.0 | 0.00 | 0.01 | 0.00 | 51 | 999.8 |
| 20260505111003 | 62 | 164 | 1.7 | 9.6 | 0.00 | 0.01 | 0.00 | 50 | 999.7 |
| 20260505070004 | 54 | 171 | 0.9 | 2.6 | 0.00 | 0.01 | 0.00 | 75 | 1000.5 |
| 20260505065003 | 53 | 163 | 0.9 | 6.1 | 0.00 | 0.01 | 0.00 | 75 | 1000.6 |
| 20260505064003 | 54 | 1 | 0.9 | 5.2 | 0.00 | 0.01 | 0.00 | 76 | 1000.6 |
| 20260505063003 | 53 | 126 | 0.0 | 2.6 | 0.00 | 0.01 | 0.00 | 78 | 1000.6 |
| 20260505062003 | 52 | 86 | 0.9 | 3.5 | 0.00 | 0.01 | 0.00 | 79 | 1000.5 |
| 20260505061003 | 52 | 349 | 0.9 | 2.6 | 0.00 | 0.01 | 0.00 | 81 | 1000.5 |
| 20260505060003 | 51 | 341 | 0.0 | 1.7 | 0.00 | 0.01 | 0.00 | 84 | 1000.5 |
| 20260505055003 | 50 | 341 | 0.0 | 1.7 | 0.00 | 0.01 | 0.00 | 84 | 1000.5 |
| 20260505054003 | 50 | 176 | 0.9 | 4.3 | 0.00 | 0.01 | 0.00 | 85 | 1000.5 |
| 20260505053003 | 50 | 162 | 0.9 | 2.6 | 0.00 | 0.01 | 0.00 | 85 | 1000.4 |
| 20260505052003 | 50 | 339 | 0.9 | 5.2 | 0.00 | 0.01 | 0.00 | 85 | 1000.4 |
| 20260505051003 | 50 | 211 | 0.0 | 5.2 | 0.00 | 0.01 | 0.00 | 85 | 1000.3 |
| 20260505041003 | 49 | 165 | 0.9 | 2.6 | 0.00 | 0.01 | 0.00 | 86 | 1000.2 |
| 20260505040004 | 48 | 344 | 0.0 | 1.7 | 0.00 | 0.01 | 0.00 | 86 | 1000.2 |
| 20260505035003 | 48 | 344 | 0.0 | 1.7 | 0.00 | 0.01 | 0.00 | 86 | 1000.4 |
| 20260505034003 | 48 | 343 | 0.0 | 2.6 | 0.00 | 0.01 | 0.00 | 86 | 1000.5 |
| 20260505033003 | 48 | 342 | 0.0 | 1.7 | 0.00 | 0.01 | 0.00 | 86 | 1000.5 |
| 20260505032003 | 48 | 342 | 0.0 | 1.7 | 0.00 | 0.01 | 0.00 | 86 | 1000.5 |
| 20260505031003 | 48 | 341 | 0.0 | 0.9 | 0.00 | 0.01 | 0.00 | 87 | 1000.5 |
| 20260505030003 | 48 | 342 | 0.0 | 1.7 | 0.00 | 0.01 | 0.00 | 87 | 1000.4 |
| 20260505025003 | 48 | 342 | 0.0 | 1.7 | 0.00 | 0.01 | 0.00 | 87 | 1000.4 |
| 20260505024003 | 48 | 342 | 0.0 | 2.6 | 0.00 | 0.01 | 0.00 | 87 | 1000.3 |
| 20260505023003 | 48 | 342 | 0.0 | 1.7 | 0.00 | 0.01 | 0.00 | 87 | 1000.4 |
| 20260505022003 | 48 | 342 | 0.0 | 1.7 | 0.00 | 0.01 | 0.00 | 87 | 1000.4 |
| 20260505021003 | 48 | 342 | 0.0 | 2.6 | 0.00 | 0.01 | 0.00 | 87 | 1000.4 |
| 20260505020003 | 48 | 342 | 0.0 | 0.9 | 0.00 | 0.01 | 0.00 | 87 | 1000.4 |
| 20260505015003 | 48 | 342 | 0.0 | 0.9 | 0.00 | 0.01 | 0.00 | 88 | 1000.3 |
| 20260505014003 | 48 | 342 | 0.0 | 1.7 | 0.00 | 0.01 | 0.00 | 88 | 1000.3 |
| 20260505013003 | 48 | 342 | 0.9 | 1.7 | 0.00 | 0.01 | 0.00 | 88 | 1000.4 |
| 20260505012003 | 48 | 342 | 0.9 | 1.7 | 0.00 | 0.01 | 0.00 | 88 | 1000.5 |
| 20260505011003 | 47 | 342 | 0.0 | 1.7 | 0.00 | 0.01 | 0.00 | 88 | 1000.5 |
| 20260505010003 | 47 | 342 | 0.9 | 1.7 | 0.00 | 0.01 | 0.00 | 88 | 1000.4 |
| 20260505005004 | 47 | 342 | 0.0 | 1.7 | 0.00 | 0.01 | 0.00 | 88 | 1000.4 |
| 20260505004003 | 47 | 342 | 0.0 | 1.7 | 0.00 | 0.01 | 0.00 | 88 | 1000.3 |
| 20260505003003 | 47 | 342 | 0.9 | 1.7 | 0.00 | 0.01 | 0.00 | 88 | 1000.3 |
| 20260505002003 | 47 | 342 | 0.0 | 1.7 | 0.00 | 0.01 | 0.00 | 88 | 1000.2 |
| 20260505001003 | 47 | 342 | 0.9 | 1.7 | 0.00 | 0.01 | 0.00 | 88 | 1000.2 |
| 20260505000003 | 47 | 342 | 0.0 | 0.9 | 0.00 | 0.01 | 0.00 | 88 | 1000.2 |
| 20260504235003 | 47 | 342 | 0.9 | 1.7 | 0.00 | 0.01 | 0.00 | 88 | 1000.1 |
| 20260504234003 | 47 | 342 | 0.9 | 2.6 | 0.00 | 0.01 | 0.00 | 88 | 1000.0 |
| 20260504233003 | 47 | 342 | 0.0 | 2.6 | 0.00 | 0.01 | 0.00 | 88 | 1000.0 |
| 20260504232003 | 47 | 342 | 0.9 | 1.7 | 0.00 | 0.01 | 0.00 | 88 | 999.9 |
| 20260504231003 | 47 | 342 | 0.9 | 2.6 | 0.00 | 0.01 | 0.00 | 88 | 999.9 |
| 20260504230003 | 47 | 342 | 0.9 | 2.6 | 0.00 | 0.01 | 0.00 | 88 | 999.9 |
| 20260504225003 | 47 | 342 | 0.9 | 2.6 | 0.00 | 0.01 | 0.00 | 88 | 999.8 |
| 20260504224003 | 47 | 342 | 0.9 | 2.6 | 0.00 | 0.01 | 0.00 | 88 | 999.7 |
| 20260504223003 | 47 | 342 | 0.9 | 1.7 | 0.00 | 0.01 | 0.00 | 88 | 999.7 |
| 20260504222003 | 47 | 342 | 0.9 | 1.7 | 0.00 | 0.01 | 0.00 | 88 | 999.8 |
| 20260504221003 | 47 | 342 | 0.9 | 2.6 | 0.00 | 0.01 | 0.00 | 89 | 999.7 |
| 20260504220003 | 47 | 342 | 0.9 | 2.6 | 0.00 | 0.01 | 0.00 | 88 | 999.7 |
| 20260504215003 | 47 | 342 | 0.9 | 2.6 | 0.00 | 0.01 | 0.00 | 88 | 999.6 |
| 20260504214003 | 48 | 342 | 0.9 | 2.6 | 0.00 | 0.01 | 0.00 | 87 | 999.5 |
| 20260504213003 | 48 | 342 | 1.7 | 4.3 | 0.00 | 0.01 | 0.00 | 87 | 999.4 |
| 20260504212003 | 49 | 343 | 0.9 | 2.6 | 0.00 | 0.01 | 0.00 | 87 | 999.3 |
| 20260504211003 | 49 | 342 | 0.9 | 3.5 | 0.00 | 0.01 | 0.00 | 88 | 999.2 |
| 20260504210004 | 49 | 342 | 0.9 | 2.6 | 0.00 | 0.01 | 0.00 | 89 | 999.0 |
| 20260504205003 | 49 | 342 | 0.9 | 2.6 | 0.00 | 0.01 | 0.01 | 89 | 998.9 |
| 20260504204003 | 49 | 342 | 0.9 | 1.7 | 0.00 | 0.01 | 0.01 | 89 | 998.8 |
| 20260504203003 | 49 | 342 | 0.9 | 2.6 | 0.00 | 0.01 | 0.01 | 88 | 998.8 |
| 20260504202003 | 50 | 342 | 1.7 | 4.3 | 0.00 | 0.01 | 0.01 | 88 | 998.8 |
| 20260504201003 | 50 | 343 | 0.9 | 2.6 | 0.00 | 0.01 | 0.01 | 87 | 998.6 |
| 20260504200003 | 50 | 344 | 1.7 | 4.3 | 0.00 | 0.01 | 0.01 | 87 | 998.4 |
| 20260504195003 | 51 | 343 | 0.9 | 3.5 | 0.00 | 0.01 | 0.01 | 88 | 998.3 |
| 20260504194003 | 51 | 342 | 0.9 | 3.5 | 0.00 | 0.01 | 0.01 | 88 | 998.3 |
| 20260504193003 | 51 | 342 | 0.9 | 3.5 | 0.00 | 0.01 | 0.01 | 87 | 998.2 |
| 20260504192003 | 52 | 342 | 0.9 | 3.5 | 0.00 | 0.01 | 0.01 | 86 | 998.0 |
| 20260504191003 | 53 | 342 | 0.9 | 2.6 | 0.00 | 0.01 | 0.01 | 85 | 997.8 |
| 20260504190003 | 53 | 342 | 0.9 | 3.5 | 0.00 | 0.01 | 0.01 | 85 | 997.7 |
| 20260504185003 | 54 | 342 | 0.9 | 3.5 | 0.00 | 0.01 | 0.01 | 85 | 997.5 |
| 20260504184003 | 54 | 342 | 0.9 | 2.6 | 0.00 | 0.01 | 0.01 | 86 | 997.5 |
| 20260504183003 | 53 | 342 | 0.9 | 1.7 | 0.00 | 0.01 | 0.01 | 88 | 997.5 |
| 20260504182003 | 53 | 342 | 0.9 | 2.6 | 0.00 | 0.01 | 0.01 | 89 | 997.5 |
| 20260504181003 | 53 | 342 | 0.9 | 1.7 | 0.00 | 0.01 | 0.01 | 89 | 997.3 |
| 20260504180004 | 53 | 342 | 0.9 | 1.7 | 0.00 | 0.01 | 0.01 | 89 | 997.2 |
| 20260504175003 | 54 | 342 | 0.0 | 1.7 | 0.00 | 0.01 | 0.01 | 89 | 997.1 |
| 20260504174003 | 54 | 342 | 0.0 | 1.7 | 0.00 | 0.01 | 0.01 | 89 | 996.9 |
| 20260504173003 | 54 | 342 | 0.9 | 2.6 | 0.00 | 0.01 | 0.01 | 88 | 996.6 |
| 20260504172003 | 55 | 342 | 0.9 | 2.6 | 0.00 | 0.01 | 0.01 | 87 | 996.7 |
| 20260504171003 | 56 | 342 | 0.9 | 2.6 | 0.00 | 0.01 | 0.01 | 87 | 996.7 |